CAPE
38 49 48 37 14 7 0 0 0 2 0 2 3 1 2 3 2 0 0 0 0 0 0 0 0 0 0 0 0 0 0 0 0 0 0 0 0 0 0 0 0 0 0 0 0 0 0 1004 1230 378 122 281 0 18
37 41 47 43 32 3 0 0 0 0 0 4 2 2 1 1 1 0 0 0 0 0 0 0 0 0 0 0 0 0 0 0 0 6 0 0 0 0 0 0 0 0 0 0 0 0 382 366 559 293 188 581 378 57
38 49 49 48 38 0 0 0 0 0 0 3 1 1 0 1 0 0 0 0 0 0 0 0 0 0 0 0 0 0 0 0 0 0 0 0 12 0 0 0 0 0 0 56 217 288 0 0 304 621 912 1146 1051 323
42 45 42 45 40 2 2 3 0 0 0 1 1 1 0 0 0 0 0 0 0 0 0 0 0 0 0 0 0 0 0 0 0 0 0 0 0 0 0 0 0 0 1 56 148 99 86 7 11 213 1130 1292 1186 853
48 45 48 50 41 20 7 0 0 0 1 1 1 0 0 0 0 0 0 0 0 0 0 0 0 0 0 0 0 0 0 0 0 0 0 0 0 0 0 0 0 0 57 26 109 15 190 211 0 47 306 1339 1095 888
34 36 48 49 38 23 3 4 0 0 0 0 0 0 0 0 0 0 0 0 0 0 0 0 0 0 0 0 0 0 0 0 0 0 0 0 0 0 0 0 8 0 3 2 14 9 4 105 345 137 308 1047 774 440
17 6 42 44 33 16 8 0 0 0 0 0 0 0 0 0 0 0 0 0 0 0 0 0 0 0 0 0 0 0 0 0 0 0 0 0 0 0 0 0 1 0 0 0 0 0 0 8 10 26 852 771 579 332
9 0 36 35 24 23 12 0 0 2 0 0 0 0 0 0 0 0 0 0 0 0 0 0 0 0 0 0 0 0 0 0 0 0 0 0 0 0 0 0 0 0 0 0 0 0 0 0 0 0 202 464 451 327
8 10 34 24 21 26 19 7 0 2 2 0 0 0 0 0 0 0 0 0 0 0 0 0 0 0 0 0 0 0 0 0 0 0 0 0 0 0 0 0 0 0 0 0 0 0 0 0 0 0 1 125 275 353
27 19 24 15 16 19 20 5 2 3 0 0 0 0 0 0 0 0 0 0 0 0 0 0 0 6 0 0 8 22 0 0 0 0 0 0 0 0 0 0 0 0 0 0 0 0 0 0 0 0 0 0 0 13
62 37 27 18 11 15 19 5 6 0 0 0 0 0 0 0 0 0 0 0 0 0 0 0 0 0 0 0 0 4 8 6 8 0 7 0 0 16 0 0 0 0 0 0 0 0 0 0 0 0 0 0 0 15
74 67 39 20 16 13 15 4 10 0 0 0 0 0 0 0 0 0 0 0 0 0 0 0 0 0 7 0 2 6 1 0 0 0 33 6 0 0 0 0 0 0 0 0 0 0 0 0 0 0 0 2 4 16
81 73 40 26 17 11 16 17 5 0 0 0 0 0 0 0 0 0 0 0 0 0 141 28 31 12 58 0 0 0 0 0 8 19 14 20 0 0 0 0 0 0 0 0 0 0 0 0 0 0 0 0 9 20
70 72 48 29 18 19 28 17 0 0 0 0 6 0 0 0 0 0 0 1 13 36 12 0 21 16 0 13 0 10 0 8 43 0 12 8 0 0 0 0 0 0 0 0 0 0 0 0 0 0 0 0 0 12
83 76 49 32 32 44 34 6 0 0 0 1 5 4 0 0 0 0 0 0 8 0 0 1 13 0 1 29 0 1 39 1 23 0 79 1 0 0 0 0 0 0 0 0 0 0 0 0 0 0 0 0 0 5
76 55 6 35 64 50 16 0 0 0 1 4 0 0 0 0 0 0 0 0 0 0 0 3 9 1 0 1 2 13 16 28 1 0 0 0 0 0 0 0 0 0 0 0 0 0 0 0 0 0 0 0 0 0
11 1 35 71 67 19 0 0 0 0 0 0 0 0 0 0 4 13 1 0 0 0 2 0 2 7 0 12 7 5 0 0 0 0 1 0 0 0 0 0 0 0 0 0 2 1 3 6 5 1 0 0 0 0
12 14 61 56 0 0 0 0 0 0 0 0 0 0 11 2 3 5 7 4 2 0 2 6 0 2 2 6 9 0 0 0 0 0 0 0 0 0 0 0 0 0 0 1 5 1 0 0 0 0 0 0 0 0
1 11 39 0 0 0 0 0 0 0 2 0 0 0 11 2 0 0 0 0 0 0 0 0 0 0 0 0 0 0 0 0 0 0 0 0 0 0 0 0 0 2 8 19 13 1 4 7 2 4 2 0 0 0
45 18 0 0 0 0 28 0 0 3 1 4 2 0 0 3 0 0 0 0 0 0 0 0 0 0 0 0 0 0 0 0 0 0 0 0 0 1 1 1 1 2 0 1 0 0 1 1 1 1 1 1 2 2
0 0 0 0 0 0 0 6 0 3 0 1 0 0 0 0 12 0 0 0 0 0 0 0 0 0 0 0 0 0 0 0 0 2 2 0 0 1 0 0 0 0 0 1 1 1 1 1 1 1 1 1 1 1
0 0 0 0 0 7 0 0 2 0 11 0 5 1 3 3 0 0 0 0 0 0 0 0 0 0 0 0 0 0 0 1 0 0 0 0 0 0 0 1 0 0 0 1 1 1 1 0 0 0 0 0 0 0
0 0 0 0 1 0 0 0 0 4 7 1 0 0 0 0 0 0 0 0 0 0 0 0 0 0 0 0 0 1 0 0 6 0 0 0 0 0 0 0 0 0 0 0 0 0 0 0 0 0 0 0 0 0
0 0 4 2 0 0 0 6 0 0 0 0 0 0 0 0 0 0 0 0 0 0 0 0 0 0 0 0 0 0 0 0 0 0 0 0 1 1 0 0 0 0 0 0 0 0 0 0 0 0 0 0 0 0
0 0 0 0 0 2 6 0 0 0 0 0 0 0 1 0 0 0 0 0 0 0 0 0 0 0 0 0 0 0 0 0 0 0 0 0 0 0 0 0 0 0 0 0 0 0 0 0 0 2 8 6 5 3
0 0 0 14 9 14 2 0 0 3 2 14 6 0 0 0 1 0 0 0 0 0 1 3 6 3 0 0 0 0 0 0 0 1 2 2 0 0 0 0 0 0 0 3 9 8 2 0 0 5 9 13 2 0
0 8 14 0 4 2 0 0 0 0 2 5 2 4 0 0 0 0 0 0 0 4 11 3 1 0 0 0 0 0 0 1 9 3 3 0 0 4 23 27 38 25 18 24 26 0 1 2 0 3 1 4 7 0
0 0 1 0 0 0 0 3 0 2 2 9 7 2 9 0 0 0 0 0 1 0 0 0 2 0 0 0 1 10 7 6 8 2 0 0 0 0 0 0 0 0 0 0 0 0 7 10 9 7 1 0 0 0
0 0 0 0 0 2 1 0 6 0 0 0 5 0 0 0 0 0 0 0 0 0 0 0 0 2 3 0 3 13 6 3 0 0 0 0 0 0 0 0 0 0 0 0 0 0 0 0 0 0 0 0 0 0
0 0 3 14 10 5 3 1 14 6 1 0 0 0 1 0 0 0 0 0 0 0 0 3 13 16 24 36 50 30 0 0 0 0 0 0 0 0 0 0 0 0 0 0 0 0 0 0 0 0 0 0 0 0
0 0 2 15 14 16 14 5 0 0 1 1 0 0 0 0 0 0 0 0 0 0 0 0 6 4 3 2 5 0 0 0 0 0 0 0 0 0 0 0 0 0 0 0 0 1 0 0 2 2 1 0 0 0
14 10 21 13 18 16 17 3 7 1 4 3 0 0 0 1 4 0 0 0 0 0 1 4 11 0 0 0 0 0 0 0 0 0 0 0 0 0 0 0 0 0 0 0 0 1 1 0 0 0 0 0 0 0
29 15 1 0 9 16 0 0 0 1 1 0 0 0 0 0 1 0 0 0 0 0 0 0 0 0 0 0 0 0 0 0 0 0 0 0 0 0 0 0 0 0 0 0 0 0 0 0 0 0 0 0 0 0
CIN
-0 -0 -0 -0 -0 -0 -0 -0 -0 -0 -0 -0 -0 -0 -0 -0 -0 -0 -0 -0 -0 -0 -0 -0 -0 -0 -0 -0 -0 -0 -0 -0 -0 -0 -0 -0 -0 -0 -0 -0 -0 -0 -0 -0 -0 -0 -0 -153 -77 -52 -267 -407 -0 -504
-0 -1 -0 -0 -0 -0 -0 -0 -0 -0 -0 -0 -0 -0 -0 -0 -0 -0 -0 -0 -0 -0 -0 -0 -0 -0 -0 -0 -0 -0 -0 -0 -0 -173 -0 -0 -0 -0 -0 -0 -0 -0 -0 -0 -0 -0 -192 -325 -276 -385 -323 -251 -368 -483
-1 -0 -0 -0 -0 -0 -0 -0 -0 -0 -0 -0 -0 -0 -0 -0 -0 -0 -0 -0 -0 -0 -0 -0 -0 -0 -0 -0 -0 -0 -0 -0 -0 -0 -0 -0 -108 -0 -0 -0 -0 -0 -0 -182 -167 -175 -0 -0 -284 -232 -216 -132 -163 -301
-0 -0 -0 -0 -0 -0 -2 -0 -0 -0 -0 -0 -0 -0 -0 -0 -0 -0 -0 -0 -0 -0 -0 -0 -0 -0 -0 -0 -0 -0 -0 -0 -0 -0 -0 -0 -0 -0 -0 -0 -0 -0 -33 -199 -195 -197 -204 -128 -254 -266 -111 -106 -131 -114
-0 -0 -0 -0 -0 -0 -1 -0 -0 -0 -0 -0 -0 -0 -0 -0 -0 -0 -0 -0 -0 -0 -0 -0 -0 -0 -0 -0 -0 -0 -0 -0 -0 -0 -0 -0 -0 -0 -0 -0 -0 -0 -140 -134 -116 -225 -156 -122 -0 -247 -207 -53 -94 -162
-0 -0 -0 -0 -1 -0 -1 -0 -0 -0 -0 -0 -0 -0 -0 -0 -0 -0 -0 -0 -0 -0 -0 -0 -0 -0 -0 -0 -0 -0 -0 -0 -0 -0 -0 -0 -0 -0 -0 -0 -69 -0 -99 -49 -136 -229 -113 -152 -113 -219 -141 -47 -80 -144
-0 -0 -0 -0 -0 -0 -0 -0 -0 -0 -0 -0 -0 -0 -0 -0 -0 -0 -0 -0 -0 -0 -0 -0 -0 -0 -0 -0 -0 -0 -0 -0 -0 -0 -0 -0 -0 -0 -0 -0 -31 -0 -0 -0 -0 -0 -0 -99 -126 -147 -72 -114 -111 -162
-0 -0 -0 -0 -0 -0 -0 -0 -0 -0 -0 -0 -0 -0 -0 -0 -0 -0 -0 -0 -0 -0 -0 -0 -0 -0 -0 -0 -0 -0 -0 -0 -0 -0 -0 -0 -0 -0 -0 -0 -0 -0 -0 -0 -0 -0 -0 -0 -0 -0 -123 -100 -99 -107
-2 -0 -0 -0 -0 -0 -0 -0 -0 -0 -0 -0 -0 -0 -0 -0 -0 -0 -0 -0 -0 -0 -0 -0 -0 -20 -0 -0 -0 -0 -0 -0 -0 -0 -0 -0 -0 -0 -0 -0 -0 -0 -0 -0 -0 -0 -0 -0 -0 -0 -20 -84 -71 -79
-0 -0 -0 -0 -0 -0 -0 -0 -0 -0 -0 -0 -0 -0 -0 -0 -0 -0 -0 -0 -0 -0 -0 -0 -0 -64 -0 -0 -72 -54 -0 -0 -0 -0 -0 -0 -0 -0 -0 -0 -0 -0 -0 -0 -0 -0 -0 -0 -0 -0 -0 -0 -0 -98
-0 -0 -0 -1 -0 -0 -0 -0 -0 -0 -0 -0 -0 -8 -0 -0 -0 -0 -0 -0 -0 -0 -0 -0 -0 -0 -0 -7 -0 -161 -88 -125 -24 -0 -9 -0 -0 -94 -0 -0 -0 -0 -0 -0 -0 -0 -0 -0 -0 -0 -0 -0 -0 -44
-0 -0 -0 -2 -4 -0 -0 -0 -0 -0 -0 -0 -0 -0 -0 -0 -0 -0 -0 -0 -0 -0 -0 -0 -0 -0 -67 -0 -23 -87 -29 -32 -0 -0 -41 -28 -6 -0 -0 -0 -0 -0 -0 -0 -0 -0 -0 -0 -0 -0 -0 -92 -79 -95
-0 -0 -0 -0 -1 -0 -0 -0 -1 -0 -0 -0 -0 -0 -0 -0 -0 -0 -0 -0 -0 -0 -48 -66 -22 -51 -26 -0 -0 -0 -0 -0 -60 -62 -37 -107 -0 -0 -0 -0 -0 -0 -0 -0 -0 -0 -0 -0 -0 -0 -0 -0 -136 -118
-0 -0 -0 -0 -0 -0 -0 -1 -0 -0 -0 -0 -15 -0 -0 -0 -0 -0 -0 -30 -108 -97 -89 -0 -57 -38 -0 -45 -2 -21 -0 -22 -37 -0 -66 -110 -8 -0 -0 -0 -0 -0 -0 -0 -0 -0 -0 -0 -0 -0 -0 -0 -0 -129
-1 -0 -0 -0 -0 -0 -0 -0 -0 -0 -0 -9 -6 -0 -0 -0 -0 -0 -0 -14 -95 -0 -0 -11 -59 -0 -34 -44 -0 -26 -32 -13 -32 -33 -48 -25 -0 -0 -0 -0 -0 -0 -0 -0 -0 -0 -0 -0 -0 -0 -0 -0 -15 -90
-1 -0 -1 -0 -0 -1 -1 -0 -0 -0 -28 -3 -0 -0 -0 -0 -0 -0 -0 -0 -0 -0 -0 -44 -23 -8 -0 -10 -4 -31 -12 -24 -7 -0 -0 -0 -0 -0 -0 -0 -0 -0 -0 -0 -0 -0 -0 -0 -0 -0 -0 -0 -0 -0
-2 -1 -0 -0 -0 -3 -0 -0 -0 -0 -0 -6 -0 -0 -0 -0 -40 -75 -27 -0 -0 -0 -27 -5 -11 -4 -2 -18 -10 -70 -3 -0 -0 -1 -91 -0 -0 -0 -0 -0 -0 -0 -0 -2 -13 -23 -28 -27 -26 -23 -0 -0 -0 -0
-12 -8 -0 -0 -0 -0 -0 -0 -0 -0 -0 -0 -0 -0 -61 -17 -56 -82 -109 -129 -68 -0 -45 -13 -0 -14 -12 -10 -29 -0 -13 -17 -0 -0 -0 -0 -0 -0 -0 -0 -0 -0 -0 -32 -27 -20 -0 -0 -0 -0 -0 -0 -0 -0
-13 -18 -1 -0 -0 -0 -0 -0 -0 -0 -24 -0 -0 -0 -69 -67 -0 -0 -0 -0 -0 -0 -0 -0 -0 -0 -0 -0 -0 -0 -0 -0 -0 -0 -0 -0 -0 -0 -0 -0 -0 -42 -26 -15 -22 -5 -16 -13 -3 -59 -0 -0 -0 -0
-19 -9 -1 -0 -0 -0 -20 -0 -0 -55 -13 -32 -34 -7 -1 -8 -0 -0 -0 -0 -0 -0 -0 -0 -0 -0 -0 -0 -0 -0 -0 -0 -0 -0 -0 -0 -0 -0 -0 -0 -0 -37 -10 -32 -0 -0 -0 -0 -0 -0 -0 -0 -0 -0
-0 -0 -0 -0 -0 -0 -0 -86 -0 -58 -0 -11 -38 -0 -0 -0 -28 -6 -0 -0 -0 -0 -0 -0 -0 -0 -0 -0 -0 -0 -0 -0 -0 -0 -0 -0 -0 -0 -0 -0 -0 -0 -0 -0 -0 -0 -0 -0 -0 -0 -0 -0 -0 -0
-0 -0 -0 -0 -0 -56 -0 -0 -18 -5 -16 -0 -34 -39 -17 -17 -0 -0 -0 -0 -0 -0 -0 -0 -0 -0 -0 -0 -0 -0 -1 -0 -0 -2 -0 -0 -0 -0 -0 -0 -0 -0 -0 -0 -0 -0 -0 -0 -0 -0 -0 -0 -0 -0
-0 -0 -0 -0 -9 -0 -0 -0 -17 -21 -7 -15 -0 -0 -0 -0 -0 -0 -0 -0 -0 -0 -0 -0 -0 -0 -0 -0 -0 -0 -0 -0 -7 -0 -0 -0 -0 -3 -0 -0 -0 -0 -0 -0 -0 -0 -0 -0 -0 -0 -0 -0 -0 -0
-0 -0 -26 -3 -0 -0 -0 -10 -0 -0 -0 -0 -0 -0 -0 -0 -0 -0 -0 -0 -0 -0 -0 -0 -0 -0 -0 -0 -0 -0 -0 -15 -0 -0 -0 -16 -25 -23 -32 -24 -0 -0 -0 -0 -0 -0 -0 -0 -0 -0 -0 -0 -58 -0
-0 -0 -0 -0 -0 -2 -5 -0 -0 -0 -0 -0 -0 -0 -2 -0 -0 -0 -0 -0 -0 -0 -0 -0 -0 -0 -0 -0 -0 -0 -0 -0 -0 -0 -0 -0 -6 -0 -0 -0 -0 -0 -0 -0 -0 -0 -0 -0 -0 -93 -70 -72 -81 -77
-0 -0 -0 -6 -13 -13 -8 -0 -0 -3 -5 -8 -8 -0 -0 -0 -0 -0 -0 -0 -0 -0 -0 -4 -3 -2 -0 -0 -0 -0 -0 -0 -0 -36 -91 -32 -34 -0 -0 -0 -0 -32 -0 -138 -99 -24 -36 -0 -50 -129 -103 -77 -49 -0
-0 -9 -10 -0 -30 -28 -1 -0 -2 -2 -0 -1 -2 -2 -0 -0 -0 -0 -0 -0 -0 -4 -2 -7 -19 -0 -0 -0 -0 -0 -0 -151 -130 -105 -107 -43 -0 -93 -83 -70 -63 -85 -118 -96 -95 -0 -15 -28 -0 -28 -77 -78 -77 -0
-0 -0 -2 -0 -0 -0 -0 -1 -0 -0 -1 -4 -3 -3 -0 -0 -0 -0 -0 -0 -2 -0 -0 -24 -65 -0 -0 -116 -142 -125 -118 -151 -149 -140 -0 -0 -0 -0 -0 -0 -0 -0 -0 -0 -0 -0 -69 -51 -47 -64 -36 -0 -0 -0
-0 -0 -0 -0 -0 -0 -0 -0 -3 -3 -4 -5 -3 -9 -0 -0 -0 -0 -0 -0 -0 -61 -0 -0 -0 -160 -156 -11 -124 -129 -125 -112 -0 -0 -0 -0 -0 -0 -0 -0 -0 -0 -0 -0 -0 -0 -0 -0 -0 -0 -0 -0 -0 -0
-0 -0 -1 -0 -0 -0 -3 -5 -7 -27 -38 -4 -31 -0 -6 -0 -0 -0 -0 -0 -0 -0 -0 -98 -118 -128 -136 -119 -82 -48 -0 -0 -0 -0 -0 -0 -0 -0 -0 -0 -0 -0 -0 -0 -0 -0 -0 -0 -0 -0 -0 -0 -35 -0
-0 -0 -0 -1 -0 -0 -5 -20 -13 -10 -3 -9 -0 -0 -0 -0 -0 -0 -0 -0 -0 -0 -0 -40 -118 -117 -38 -33 -49 -0 -0 -0 -0 -0 -0 -0 -0 -0 -0 -0 -0 -0 -0 -0 -0 -47 -0 -0 -42 -40 -64 -0 -0 -0
-13 -9 -1 -1 -0 -5 -10 -13 -15 -10 -17 -7 -5 -0 -0 -49 -50 -1 -0 -0 -0 -0 -170 -132 -77 -0 -0 -0 -0 -0 -0 -0 -0 -0 -0 -0 -0 -0 -0 -0 -0 -0 -0 -0 -0 -45 -26 -0 -0 -0 -0 -0 -0 -0
-11 -0 -7 -3 -4 -4 -0 -1 -11 -20 -37 -10 -0 -0 -0 -0 -10 -0 -0 -0 -0 -0 -0 -0 -0 -0 -0 -0 -0 -0 -0 -0 -0 -0 -0 -0 -0 -0 -0 -0 -0 -0 -0 -0 -0 -0 -0 -0 -0 -0 -0 -0 -0 -0
Wind_Speed
10 10 10 9 9 7 8 8 10 10 11 13 15 17 18 20 21 9 5 2 3 1 7 3 3 3 6 4 3 6 4 8 5 5 3 3 2 4 1 4 5 7 6 5 3 3 6 6 5 2 6 3 6 4
10 10 10 10 9 7 6 7 9 7 10 12 14 15 16 17 18 15 3 4 4 3 8 4 9 11 8 5 3 6 6 1 1 3 2 1 2 2 4 3 5 3 6 7 7 6 2 5 7 4 3 4 5 7
11 11 10 10 10 8 7 8 8 8 10 12 13 14 15 15 15 11 4 4 4 2 6 4 5 6 3 6 5 4 3 1 3 3 2 2 1 2 3 3 3 6 4 4 4 4 1 3 3 4 7 10 6 10
11 11 11 11 11 9 8 7 8 8 10 11 12 13 14 15 15 12 2 3 0 3 1 8 5 4 2 2 2 4 5 3 2 3 1 0 0 1 3 5 2 4 5 3 1 3 3 6 5 3 7 12 15 2
12 11 11 11 11 10 8 7 8 9 10 11 12 13 14 15 16 9 4 4 2 3 2 6 10 7 4 3 3 3 4 4 3 3 2 2 3 4 3 2 4 3 2 3 2 5 3 3 3 5 5 6 9 10
10 9 10 11 12 10 10 8 8 9 9 11 12 13 14 14 15 3 3 1 1 2 3 4 5 3 2 3 3 2 3 3 3 4 3 3 4 4 1 0 5 4 4 4 3 5 2 3 5 2 2 3 4 4
11 10 10 11 11 10 9 8 8 8 9 11 12 13 14 12 2 2 4 4 4 3 2 5 5 5 5 3 3 1 2 2 4 2 2 2 3 4 1 3 5 3 6 4 4 6 7 4 1 4 7 8 8 4
12 11 11 12 11 10 10 8 7 7 9 11 12 14 15 17 8 6 4 13 4 2 1 1 6 3 3 1 1 2 1 2 2 4 2 2 3 3 3 6 2 3 4 6 7 7 5 4 7 6 3 5 6 4
15 13 13 13 12 11 10 8 8 7 8 11 15 18 4 1 1 4 1 8 1 4 1 1 2 4 4 2 3 2 3 1 2 3 3 5 2 5 8 8 8 7 7 8 6 7 7 7 6 7 8 6 2 4
17 16 15 14 12 11 10 8 7 7 8 11 4 1 2 4 4 4 3 2 3 1 1 3 2 2 3 2 3 2 1 3 1 6 3 4 5 5 6 4 6 7 8 7 7 4 5 5 7 7 2 3 3 4
19 19 18 16 14 12 10 8 6 4 5 0 2 2 4 4 3 1 2 2 2 3 4 5 6 3 1 2 2 1 1 2 2 6 5 2 3 1 5 9 8 8 9 9 8 6 7 7 6 7 8 6 3 3
16 19 19 17 15 12 10 7 5 2 1 2 3 4 3 2 1 1 3 3 4 5 3 5 5 6 2 4 4 2 1 2 5 3 3 1 3 4 6 7 8 8 8 9 8 8 8 7 6 5 6 9 7 6
14 18 20 18 16 13 10 8 8 5 7 1 1 2 3 2 2 4 5 4 3 2 2 2 2 3 3 4 3 3 1 5 2 2 3 2 3 4 5 5 7 8 9 8 7 6 6 5 7 6 6 6 8 7
13 17 19 17 15 12 10 9 6 3 0 1 3 3 4 4 5 5 4 3 5 2 2 2 2 3 1 3 3 2 5 2 3 4 1 1 1 3 4 4 6 6 7 7 7 7 5 4 4 4 4 5 5 5
14 18 20 16 14 12 11 8 5 1 2 3 2 4 6 6 3 1 2 2 4 1 2 3 3 4 0 1 2 1 3 2 3 1 1 1 1 3 6 7 7 7 6 6 6 6 6 5 4 5 5 5 4 5
15 19 7 16 15 14 11 6 2 2 3 3 5 4 4 3 3 1 4 2 2 3 2 3 1 3 2 3 1 4 0 1 1 1 2 1 4 4 4 5 5 5 6 6 6 6 6 6 7 6 6 4 3 5
11 3 16 18 16 14 11 1 3 4 4 4 4 2 1 1 2 2 1 2 2 3 1 2 2 3 2 1 1 3 2 1 2 2 1 0 3 6 6 6 6 6 7 8 8 6 7 6 5 4 6 4 3 3
3 13 21 19 11 6 2 3 3 4 5 5 2 4 1 3 2 1 2 3 3 2 2 1 2 2 2 2 3 1 3 2 2 1 3 3 4 6 5 7 7 8 9 9 7 5 6 6 5 3 4 5 4 5
13 14 21 19 5 3 5 4 4 3 5 3 4 1 3 2 1 1 1 3 1 2 3 3 1 0 2 2 2 2 2 1 2 3 4 5 5 6 7 7 7 7 6 4 3 3 2 4 3 2 2 3 4 3
17 17 17 17 3 2 3 4 3 2 3 3 2 2 2 3 2 1 4 5 3 3 4 2 2 1 3 2 1 2 2 1 2 3 4 3 3 5 4 4 4 2 3 4 4 5 4 4 4 5 4 3 4 5
9 5 8 3 3 3 2 3 3 3 3 1 2 2 2 1 3 4 4 4 4 0 1 3 2 1 2 1 2 1 2 1 2 2 2 3 4 3 2 3 4 5 4 4 4 6 7 6 5 5 5 5 6 6
4 13 2 3 3 4 3 3 3 2 3 3 0 2 3 3 3 3 4 3 1 1 1 1 2 2 3 1 2 2 3 4 4 3 4 4 2 2 2 3 3 3 3 3 4 5 5 4 4 5 6 5 6 5
10 4 3 6 4 2 5 3 2 2 3 4 4 3 3 3 2 3 1 1 3 2 2 2 3 2 3 3 2 2 2 3 1 2 2 2 1 2 3 3 3 3 4 4 3 3 4 4 5 5 5 6 6 6
5 3 2 2 4 4 2 2 3 3 4 3 3 3 2 1 2 2 2 3 3 2 2 3 2 2 2 2 1 0 1 1 3 2 2 3 3 2 3 3 4 4 3 3 3 4 4 4 5 4 4 5 5 6
2 5 3 5 3 2 1 3 2 4 2 3 2 1 1 1 2 1 2 3 2 3 3 2 2 2 1 2 0 1 1 1 1 1 2 3 2 3 5 4 3 2 2 4 3 3 3 2 2 2 1 3 3 3
2 2 4 3 3 1 1 1 1 1 0 2 1 2 1 1 2 4 3 2 2 2 0 2 2 2 2 1 2 1 1 1 1 1 2 3 3 4 4 3 0 3 2 2 2 4 5 5 5 7 6 6 9 9
2 2 2 2 1 2 3 2 1 1 2 3 2 3 3 3 3 3 2 2 2 2 1 1 2 2 2 2 2 3 3 2 3 3 1 3 4 4 4 4 5 4 4 5 4 4 5 5 4 6 6 6 7 5
2 1 1 0 1 0 1 2 3 4 3 3 3 4 3 3 2 1 2 2 2 2 2 3 2 1 2 3 3 4 4 4 4 5 2 3 3 3 2 3 3 7 5 3 5 5 3 2 4 6 6 7 5 5
2 2 0 1 2 3 3 3 3 4 4 3 2 2 2 2 1 2 2 1 2 2 2 1 3 3 4 4 4 4 4 2 4 7 6 3 2 3 4 4 3 3 3 5 7 6 7 7 7 6 7 6 5 6
3 4 3 3 3 4 3 5 2 2 2 2 3 2 2 3 1 2 1 1 2 4 3 4 4 3 5 4 4 4 4 0 7 6 7 6 6 4 4 4 4 4 3 4 3 1 2 2 3 3 4 4 3 3
5 5 3 1 3 2 3 2 2 2 3 3 2 3 3 2 0 3 5 4 4 4 5 7 7 6 6 6 5 5 4 5 7 11 8 5 5 3 1 3 4 3 3 4 4 3 2 1 2 4 5 5 7 7
4 4 3 2 2 2 3 3 3 3 2 2 1 1 1 1 3 4 5 7 6 7 9 7 2 4 4 9 7 5 7 4 6 5 8 5 5 6 5 5 5 5 6 5 3 4 6 6 5 7 6 5 6 7
1 2 3 5 4 4 4 3 3 3 3 3 4 6 5 4 5 5 1 7 7 8 5 2 6 5 8 9 9 6 6 5 6 8 10 10 9 8 5 5 5 6 7 6 4 4 7 9 6 6 6 6 5 5
Wind_Direction
221 233 242 247 258 270 296 307 319 326 331 338 345 346 349 356 358 3 275 304 74 276 278 276 11 3 337 6 34 296 37 359 20 63 108 237 169 257 323 235 193 186 164 212 107 145 283 317 44 80 235 30 168 195
221 228 235 238 241 254 279 295 311 323 326 331 339 342 346 352 356 1 313 325 322 168 241 248 251 238 205 238 131 360 147 204 300 75 37 332 322 342 164 283 351 333 197 197 160 194 10 359 104 279 180 172 199 183
220 226 230 232 229 231 253 276 295 308 320 329 332 336 340 344 349 2 286 296 354 347 307 4 262 276 151 208 162 108 324 175 19 176 187 265 333 31 33 285 325 313 333 69 108 344 12 53 106 71 52 46 19 212
224 227 229 229 222 222 243 262 277 296 311 318 324 328 332 335 336 342 303 282 141 275 66 286 350 334 267 96 112 155 160 36 100 70 97 96 107 96 241 233 191 233 5 40 63 258 266 13 4 41 77 93 88 55
224 224 227 224 212 217 236 245 266 283 299 311 318 321 324 329 328 313 210 244 191 148 228 282 312 257 191 106 54 40 95 89 69 18 44 252 255 40 306 43 355 328 220 111 191 242 152 206 290 310 346 135 133 139
207 221 229 221 202 214 228 239 258 280 294 303 311 314 316 323 336 344 30 298 34 30 72 319 283 287 103 138 107 64 130 117 107 142 229 277 275 91 263 182 244 259 77 149 166 213 117 93 190 288 242 132 103 123
213 223 226 205 197 213 222 236 255 274 291 299 305 306 306 308 344 199 215 247 337 360 78 316 305 278 152 103 12 24 35 162 132 210 216 202 301 69 211 187 237 202 133 114 91 94 41 53 27 11 103 108 97 79
212 219 214 193 201 216 218 230 251 267 289 299 304 302 300 296 278 283 246 246 168 98 67 266 273 356 36 186 300 173 154 53 293 202 356 171 326 116 256 239 231 209 139 80 75 85 129 87 41 34 93 113 112 151
206 207 202 201 207 215 213 226 250 267 288 302 306 301 315 111 221 240 165 124 87 124 200 291 209 247 360 270 216 347 123 150 258 187 216 110 246 211 223 216 260 192 171 158 101 83 64 63 42 50 57 61 146 199
201 202 204 203 205 210 204 224 249 273 293 305 317 309 293 231 126 97 20 63 14 259 236 228 261 278 100 348 334 8 24 204 165 243 103 145 248 259 322 239 245 159 141 120 97 73 44 28 11 344 20 180 199 189
204 197 197 199 199 200 198 217 244 308 324 47 266 242 268 296 44 347 257 154 209 233 209 228 191 206 269 109 232 74 281 313 22 266 149 205 290 37 329 63 59 73 75 83 106 114 95 92 57 12 332 320 238 268
202 192 190 194 192 193 195 204 193 104 265 237 247 284 301 8 10 262 228 263 196 226 229 175 195 178 239 122 99 340 194 20 243 308 80 124 271 341 29 56 46 48 55 50 48 47 37 30 40 47 9 342 319 296
194 187 182 187 185 186 190 193 196 255 331 288 180 267 104 268 55 205 210 237 241 230 327 19 41 138 20 48 73 97 74 244 328 349 182 115 258 35 19 18 27 34 38 35 24 21 24 26 25 13 359 340 345 344
181 176 177 176 177 177 183 173 192 255 59 249 220 313 175 249 229 206 237 224 241 140 105 86 43 113 122 52 142 153 229 135 143 231 42 288 11 8 35 38 50 6 16 6 351 345 343 6 341 347 328 331 339 323
171 169 165 171 169 172 162 160 191 186 252 259 218 231 217 229 255 198 288 305 323 204 74 39 37 98 243 93 200 21 219 242 46 163 265 244 321 36 20 5 357 346 334 319 312 306 309 317 297 302 311 323 320 300
156 147 150 162 166 153 146 155 173 250 255 237 236 278 295 75 342 164 191 249 252 339 347 62 91 59 276 184 222 237 80 116 250 222 270 342 4 348 320 312 303 299 293 290 283 274 275 278 267 260 274 261 282 289
137 117 154 151 146 144 160 162 187 228 241 248 258 268 220 146 263 284 152 251 290 64 153 96 81 210 294 275 203 41 115 183 111 50 19 313 310 319 314 302 300 295 290 288 288 276 273 264 264 275 280 256 233 320
97 134 142 138 128 126 169 213 254 225 242 245 223 281 71 203 226 248 264 262 60 27 44 181 152 38 238 345 56 10 70 76 64 16 309 298 312 314 303 288 285 278 278 273 268 281 284 289 286 260 138 142 95 64
131 141 146 150 145 188 176 219 195 253 247 237 259 210 164 190 252 212 307 353 14 185 78 31 57 269 66 47 104 55 27 50 304 297 293 298 306 292 286 282 280 282 286 276 249 271 300 56 57 99 116 96 105 86
126 142 158 178 360 279 254 246 162 222 275 264 341 35 156 200 203 56 47 17 26 49 29 19 83 144 130 198 147 178 218 242 263 295 293 285 289 301 317 329 316 40 38 55 60 53 58 57 44 55 59 61 84 78
94 130 143 171 261 209 268 264 223 181 263 266 223 95 258 69 49 38 5 349 41 117 108 89 105 4 39 80 124 148 255 248 268 248 275 294 332 324 359 355 22 42 26 31 62 58 54 55 43 52 61 62 68 74
109 173 132 197 251 217 239 239 154 231 214 257 50 134 62 49 40 358 309 22 319 216 96 104 271 285 321 333 295 276 269 278 265 263 264 265 309 4 21 23 40 49 41 38 66 80 74 65 70 73 76 66 57 59
141 159 224 199 240 58 255 166 234 13 55 330 5 56 38 61 351 336 23 281 262 243 205 237 253 246 254 269 269 254 261 314 6 111 81 75 86 55 62 56 62 81 85 50 32 68 81 77 73 82 84 82 80 77
208 222 257 280 144 250 326 41 39 33 5 34 15 60 46 359 357 43 285 269 254 279 265 273 231 268 221 226 147 30 349 14 91 77 5 38 78 62 64 58 51 58 66 81 63 61 56 54 45 56 66 83 72 83
61 300 100 301 269 335 132 68 56 42 32 8 53 101 121 34 8 296 251 266 251 275 268 248 199 229 186 94 73 253 238 107 85 110 2 58 78 62 48 44 43 61 72 78 73 102 124 135 132 130 176 141 170 169
104 261 145 325 311 37 74 85 99 98 195 263 81 128 130 227 235 246 243 250 264 270 265 156 158 153 145 155 197 216 245 212 31 69 298 113 106 112 121 137 169 298 248 189 182 210 212 222 229 248 235 221 172 136
278 267 345 357 65 45 75 46 76 222 249 214 171 181 208 229 250 247 264 234 248 227 165 168 155 182 116 133 281 266 263 222 210 207 273 197 181 184 170 197 210 232 217 230 247 244 169 180 159 90 82 105 138 130
240 301 228 83 80 303 210 201 201 217 222 194 164 216 214 205 234 245 247 277 38 53 70 27 17 332 311 290 284 291 287 261 273 294 24 78 166 179 126 109 125 105 79 80 85 83 86 162 115 120 110 111 122 150
226 209 226 222 220 204 224 227 232 201 193 172 191 189 214 204 256 181 247 342 64 19 356 295 272 255 279 283 277 268 253 227 149 134 119 141 130 270 201 170 157 133 123 91 67 89 83 95 117 132 134 135 141 137
214 164 221 215 205 223 230 197 281 56 76 117 108 88 22 356 281 250 40 191 230 236 247 249 255 224 252 252 271 325 329 284 172 159 165 188 208 212 182 187 184 191 167 132 134 130 24 78 75 63 80 72 90 106
141 184 245 299 52 25 350 33 30 71 75 62 52 122 139 142 177 238 230 236 241 262 267 275 276 262 218 200 168 162 61 350 54 83 96 91 84 88 165 201 206 180 192 199 186 186 189 336 272 149 126 126 125 121
191 214 147 106 51 340 2 31 23 44 14 51 100 232 301 181 236 223 216 188 221 245 247 250 275 263 129 87 85 75 94 112 78 68 68 75 73 60 50 44 39 40 38 32 131 129 115 108 81 84 92 112 112 124
310 124 127 127 141 162 223 173 179 208 211 216 215 196 211 198 232 242 221 182 197 212 244 181 131 143 115 115 120 109 88 90 96 97 92 84 85 78 67 56 52 55 45 35 35 95 89 87 90 82 85 86 82 72